When you browse on this site, cookies collect data to enhance your experience and personalize the content and advertising you see.
Visit our Privacy Policy to learn more. By continuing to use the site, you agree to this use of cookies and data.
  • In Hungary
  • List of Countries
  • For 7 days
  • Water Temperature
  • Satellite Maps
  • Weather Map
  • News
  • Weather Widgets
  • user-avatar
    Login

    Hourly Weather Corfu

    Today, 21 January, Monday

    Time Temperature Precipitation Wind Pressure Humidity
    00:00 +9°C° 0 mm 3 mps 761 mmHg 77%
    01:00 +9°C° 0 mm 3 mps 761 mmHg 75%
    02:00 +9°C° 0 mm 3 mps 761 mmHg 74%
    03:00 +9°C° 0 mm 3 mps 760 mmHg 73%
    04:00 +9°C° 0 mm 3 mps 760 mmHg 72%
    05:00 +8°C° 0 mm 3 mps 760 mmHg 72%
    06:00 +8°C° 0 mm 3 mps 760 mmHg 72%
    07:00 +7°C° 0 mm 4 mps 761 mmHg 72%
    08:00 +8°C° 0 mm 4 mps 761 mmHg 70%
    09:00 +11°C° 0 mm 4 mps 761 mmHg 68%
    10:00 +12°C° 0 mm 4 mps 761 mmHg 65%
    11:00 +13°C° 0 mm 4 mps 761 mmHg 67%
    12:00 +13°C° 0 mm 5 mps 761 mmHg 68%
    13:00 +14°C° 0 mm 5 mps 761 mmHg 69%
    14:00 +13°C° 0.2 mm 5 mps 760 mmHg 72%
    15:00 +13°C° 0.2 mm 5 mps 760 mmHg 76%
    16:00 +12°C° 0.2 mm 5 mps 760 mmHg 79%
    17:00 +12°C° 0.4 mm 5 mps 760 mmHg 80%
    18:00 +12°C° 0.4 mm 5 mps 761 mmHg 80%
    19:00 +10°C° 0.4 mm 5 mps 761 mmHg 81%
    20:00 +10°C° 0.3 mm 5 mps 761 mmHg 81%
    21:00 +10°C° 0.3 mm 5 mps 761 mmHg 80%
    22:00 +10°C° 0.3 mm 6 mps 761 mmHg 80%
    23:00 +10°C° 0.3 mm 6 mps 760 mmHg 80%

    Tomorrow, 22 January, Tuesday

    Time Temperature Precipitation Wind Pressure Humidity
    00:00 +10°C° 0.3 mm 6 mps 760 mmHg 80%
    01:00 +10°C° 0.3 mm 6 mps 760 mmHg 79%
    02:00 +10°C° 1 mm 7 mps 760 mmHg 81%
    03:00 +10°C° 1 mm 7 mps 759 mmHg 83%
    04:00 +9°C° 1 mm 7 mps 759 mmHg 84%
    05:00 +9°C° 0.7 mm 7 mps 759 mmHg 84%
    06:00 +9°C° 0.7 mm 8 mps 758 mmHg 84%
    07:00 +9°C° 0.7 mm 8 mps 758 mmHg 84%
    08:00 +9°C° 0.6 mm 8 mps 758 mmHg 85%
    09:00 +10°C° 0.6 mm 8 mps 758 mmHg 85%
    10:00 +10°C° 0.6 mm 8 mps 758 mmHg 86%
    11:00 +10°C° 0.5 mm 8 mps 757 mmHg 86%
    12:00 +10°C° 0.5 mm 8 mps 756 mmHg 85%
    13:00 +11°C° 0.5 mm 9 mps 756 mmHg 85%
    14:00 +11°C° 1.2 mm 8 mps 755 mmHg 86%
    15:00 +11°C° 1.2 mm 8 mps 755 mmHg 86%
    16:00 +11°C° 1.2 mm 7 mps 754 mmHg 86%
    17:00 +11°C° 2.5 mm 7 mps 754 mmHg 86%
    18:00 +11°C° 2.5 mm 6 mps 754 mmHg 86%
    19:00 +12°C° 2.5 mm 5 mps 754 mmHg 85%
    20:00 +11°C° 1.6 mm 4 mps 755 mmHg 85%
    21:00 +11°C° 1.6 mm 3 mps 755 mmHg 84%
    22:00 +10°C° 1.6 mm 2 mps 755 mmHg 84%
    23:00 +10°C° 0.5 mm 3 mps 755 mmHg 84%

    Day after tomorrow, 23 January, Wednesday

    Time Temperature Precipitation Wind Pressure Humidity
    00:00 +10°C° 0.5 mm 3 mps 755 mmHg 83%
    01:00 +10°C° 0.5 mm 3 mps 755 mmHg 83%
    02:00 +10°C° 0.8 mm 3 mps 755 mmHg 83%
    03:00 +10°C° 0.8 mm 3 mps 754 mmHg 82%
    04:00 +10°C° 0.8 mm 3 mps 754 mmHg 82%
    05:00 +10°C° 1.3 mm 3 mps 754 mmHg 83%
    06:00 +10°C° 1.3 mm 3 mps 754 mmHg 84%
    07:00 +9°C° 1.3 mm 2 mps 753 mmHg 86%
    08:00 +10°C° 0.9 mm 3 mps 753 mmHg 85%
    09:00 +10°C° 0.9 mm 3 mps 753 mmHg 85%
    10:00 +10°C° 0.9 mm 3 mps 753 mmHg 85%
    11:00 +10°C° 0.5 mm 4 mps 753 mmHg 84%
    12:00 +11°C° 0.5 mm 4 mps 752 mmHg 84%
    13:00 +11°C° 0.5 mm 4 mps 751 mmHg 83%
    14:00 +10°C° 0.3 mm 4 mps 750 mmHg 84%
    15:00 +10°C° 0.3 mm 3 mps 750 mmHg 85%
    16:00 +10°C° 0.3 mm 3 mps 749 mmHg 86%
    17:00 +9°C° 0.3 mm 3 mps 749 mmHg 86%
    18:00 +9°C° 0.3 mm 2 mps 749 mmHg 86%
    19:00 +9°C° 0.3 mm 2 mps 749 mmHg 87%
    20:00 +9°C° 0.6 mm 2 mps 749 mmHg 88%
    21:00 +10°C° 0.6 mm 1 mps 749 mmHg 89%
    22:00 +10°C° 0.6 mm 1 mps 748 mmHg 90%
    23:00 +9°C° 1.3 mm 1 mps 748 mmHg 90%

    24 January, Thursday

    Time Temperature Precipitation Wind Pressure Humidity
    00:00 +8°C° 1.3 mm 2 mps 747 mmHg 91%
    01:00 +8°C° 1.3 mm 2 mps 747 mmHg 91%
    02:00 +8°C° 0.5 mm 2 mps 746 mmHg 90%
    03:00 +8°C° 0.5 mm 2 mps 746 mmHg 89%
    04:00 +8°C° 0.5 mm 2 mps 745 mmHg 88%
    05:00 +8°C° 0.7 mm 2 mps 745 mmHg 88%
    06:00 +8°C° 0.7 mm 2 mps 745 mmHg 88%
    07:00 +9°C° 0.7 mm 2 mps 745 mmHg 88%
    08:00 +9°C° 2.1 mm 1 mps 745 mmHg 90%
    09:00 +9°C° 2.1 mm 1 mps 745 mmHg 92%
    10:00 +9°C° 2.1 mm 1 mps 746 mmHg 94%
    11:00 +9°C° 0.5 mm 1 mps 746 mmHg 92%
    12:00 +9°C° 0.5 mm 2 mps 746 mmHg 91%
    13:00 +9°C° 0.5 mm 2 mps 746 mmHg 89%
    14:00 +9°C° 0 mm 3 mps 746 mmHg 88%
    15:00 +10°C° 0 mm 3 mps 746 mmHg 87%
    16:00 +10°C° 0 mm 3 mps 746 mmHg 86%
    17:00 +10°C° 0 mm 4 mps 746 mmHg 86%
    18:00 +8°C° 0 mm 4 mps 747 mmHg 86%
    19:00 +8°C° 0 mm 5 mps 747 mmHg 86%
    20:00 +8°C° 0 mm 5 mps 747 mmHg 84%
    21:00 +8°C° 0 mm 6 mps 747 mmHg 81%
    22:00 +8°C° 0 mm 6 mps 747 mmHg 79%
    23:00 +8°C° 3 mm 6 mps 747 mmHg 82%

    25 January, Friday

    Time Temperature Precipitation Wind Pressure Humidity
    00:00 +7°C° 3 mm 6 mps 747 mmHg 86%
    01:00 +7°C° 3 mm 6 mps 747 mmHg 89%
    02:00 +7°C° 2.3 mm 5 mps 746 mmHg 90%
    03:00 +7°C° 2.3 mm 5 mps 746 mmHg 91%
    04:00 +7°C° 2.3 mm 4 mps 746 mmHg 92%
    05:00 +7°C° 0.7 mm 4 mps 747 mmHg 92%
    06:00 +7°C° 0.7 mm 4 mps 747 mmHg 91%
    07:00 +7°C° 0.7 mm 4 mps 747 mmHg 91%
    08:00 +7°C° 1.4 mm 4 mps 747 mmHg 91%
    09:00 +7°C° 1.4 mm 4 mps 747 mmHg 91%
    10:00 +7°C° 1.4 mm 5 mps 748 mmHg 91%
    11:00 +8°C° 0.1 mm 4 mps 747 mmHg 87%
    12:00 +10°C° 0.1 mm 3 mps 747 mmHg 82%
    13:00 +11°C° 0.1 mm 3 mps 747 mmHg 77%
    14:00 +10°C° 0 mm 3 mps 747 mmHg 77%
    15:00 +10°C° 0 mm 3 mps 747 mmHg 77%
    16:00 +10°C° 0 mm 4 mps 747 mmHg 76%
    17:00 +10°C° 0 mm 4 mps 747 mmHg 77%
    18:00 +8°C° 0 mm 4 mps 747 mmHg 78%
    19:00 +8°C° 0 mm 4 mps 747 mmHg 78%
    20:00 +8°C° 0 mm 4 mps 748 mmHg 78%
    21:00 +7°C° 0 mm 4 mps 748 mmHg 79%
    22:00 +7°C° 0 mm 4 mps 748 mmHg 79%
    23:00 +7°C° 0 mm 4 mps 748 mmHg 78%

    26 January, Saturday

    Time Temperature Precipitation Wind Pressure Humidity
    00:00 +8°C° 0 mm 3 mps 748 mmHg 78%
    01:00 +7°C° 0 mm 3 mps 749 mmHg 77%
    02:00 +7°C° 0 mm 3 mps 749 mmHg 77%
    03:00 +7°C° 0 mm 3 mps 749 mmHg 76%
    04:00 +7°C° 0 mm 3 mps 749 mmHg 76%
    05:00 +5°C° 0 mm 3 mps 749 mmHg 76%
    06:00 +5°C° 0 mm 3 mps 750 mmHg 75%
    07:00 +5°C° 0 mm 3 mps 750 mmHg 75%
    08:00 +7°C° 0 mm 3 mps 751 mmHg 71%
    09:00 +8°C° 0 mm 3 mps 751 mmHg 67%
    10:00 +9°C° 0 mm 2 mps 752 mmHg 63%
    11:00 +10°C° 0 mm 3 mps 752 mmHg 60%
    12:00 +11°C° 0 mm 3 mps 752 mmHg 58%
    13:00 +12°C° 0 mm 3 mps 752 mmHg 55%
    14:00 +11°C° 0 mm 4 mps 752 mmHg 59%
    15:00 +11°C° 0 mm 4 mps 753 mmHg 62%
    16:00 +10°C° 0 mm 5 mps 753 mmHg 65%
    17:00 +9°C° 0 mm 5 mps 753 mmHg 68%
    18:00 +8°C° 0 mm 5 mps 754 mmHg 70%
    19:00 +8°C° 0 mm 4 mps 754 mmHg 72%
    20:00 +7°C° 0 mm 4 mps 755 mmHg 72%
    21:00 +7°C° 0 mm 4 mps 755 mmHg 72%
    22:00 +7°C° 0 mm 4 mps 756 mmHg 73%
    23:00 +7°C° 0 mm 3 mps 756 mmHg 72%
    Show more